OK1VCF-8 Weather Reports


time (UTC)temp
F
wind
direction
speed
knots
gust
knots
rain 1hr
in
rain 24hr
in
rain mn
in
humidity
%
barometer
mb
20260505054149 62 0 0.0 0.0 0.00 0.00 0.00 76 1009.9
20260505053429 62 0 0.0 0.0 0.00 0.00 0.00 77 1009.8
20260505052709 62 0 0.0 0.0 0.00 0.00 0.00 78 1009.8
20260505051950 63 0 0.0 0.0 0.00 0.00 0.00 78 1009.8
20260505051232 62 0 0.0 0.0 0.00 0.00 0.00 78 1009.8
20260505050514 62 0 0.0 0.0 0.00 0.00 0.00 78 1010.0
20260505041400 56 0 0.0 0.0 0.00 0.00 0.00 92 1010.0
20260505040641 55 0 0.0 0.0 0.00 0.00 0.00 92 1010.0
20260505035638 54 0 0.0 0.0 0.00 0.00 0.00 92 1010.0
20260505034920 54 0 0.0 0.0 0.00 0.00 0.00 92 1010.0
20260505034203 54 0 0.0 0.0 0.00 0.00 0.00 91 1010.0
20260505033446 54 0 0.0 0.0 0.00 0.00 0.00 91 1010.0
20260505032727 54 0 0.0 0.0 0.00 0.00 0.00 90 1010.1
20260505032008 55 0 0.0 0.0 0.00 0.00 0.00 90 1010.1
20260505031249 55 0 0.0 0.0 0.00 0.00 0.00 90 1010.2
20260505030531 56 0 0.0 0.0 0.00 0.00 0.00 89 1010.4
20260505025812 56 0 0.0 0.0 0.00 0.00 0.00 89 1010.2
20260505025055 56 0 0.0 0.0 0.00 0.00 0.00 88 1010.4
20260505024336 56 0 0.0 0.0 0.00 0.00 0.00 88 1010.4
20260505023618 56 0 0.0 0.0 0.00 0.00 0.00 88 1010.4
20260505022900 57 0 0.0 0.0 0.00 0.00 0.00 87 1010.2
20260505022144 58 0 0.0 0.0 0.00 0.00 0.00 86 1010.2
20260505021424 58 0 0.0 0.0 0.00 0.00 0.00 86 1010.1
20260505020422 58 0 0.0 0.0 0.00 0.00 0.00 86 1010.3
20260505015704 58 0 0.0 0.0 0.00 0.00 0.00 85 1010.4
20260505014945 58 0 0.0 0.0 0.00 0.00 0.00 84 1010.2
20260505014228 58 0 0.0 0.0 0.00 0.00 0.00 84 1010.4
20260505013510 59 0 0.0 0.0 0.00 0.00 0.00 80 1010.4
20260505012746 59 0 0.0 0.0 0.00 0.00 0.00 78 1010.4
20260505012017 59 0 0.0 0.0 0.00 0.00 0.00 80 1010.5
20260505011235 60 0 0.0 0.0 0.00 0.00 0.00 79 1010.6
20260505010443 60 0 0.0 0.0 0.00 0.00 0.00 75 1010.7
20260505005646 60 0 0.0 0.0 0.00 0.00 0.00 74 1010.6
20260505004844 60 0 0.0 0.0 0.00 0.00 0.00 74 1011.2
20260505004041 60 0 0.0 0.0 0.00 0.00 0.00 75 1010.6
20260505003235 60 0 0.0 0.0 0.00 0.00 0.00 74 1010.8
20260505002420 60 0 0.0 0.0 0.00 0.00 0.00 74 1011.0
20260505001606 60 0 0.0 0.0 0.00 0.00 0.00 74 1010.9
20260505000441 59 0 0.0 0.0 0.00 0.00 0.00 76 1011.2
20260504235630 58 0 0.0 0.0 0.00 0.00 0.00 82 1011.0
20260504234821 57 0 0.0 0.0 0.00 0.00 0.00 86 1011.6
20260504234045 58 0 0.0 0.0 0.00 0.00 0.00 84 1010.8
20260504233311 57 0 0.0 0.0 0.00 0.00 0.00 86 1011.0
20260504232539 56 0 0.0 0.0 0.00 0.00 0.00 88 1011.3
20260504231812 56 0 0.0 0.0 0.00 0.00 0.00 88 1011.8
20260504231055 57 0 0.0 0.0 0.00 0.00 0.00 86 1012.2
20260504230336 58 0 0.0 0.0 0.00 0.00 0.00 83 1012.2
20260504225619 60 0 0.0 0.0 0.00 0.00 0.00 78 1012.8
20260504224900 60 0 0.0 0.0 0.00 0.00 0.00 75 1012.8
20260504224144 58 0 0.0 0.0 0.00 0.00 0.00 74 1013.0
20260504223427 59 0 0.0 0.0 0.00 0.00 0.00 74 1013.2
20260504221003 64 0 0.0 0.0 0.00 0.00 0.00 59 1013.2
20260504220246 64 0 0.0 0.0 0.00 0.00 0.00 57 1012.4
20260504215526 64 0 0.0 0.0 0.00 0.00 0.00 59 1012.2
20260504214808 64 0 0.0 0.0 0.00 0.00 0.00 60 1012.1
20260504214050 64 0 0.0 0.0 0.00 0.00 0.00 60 1012.2
20260504213332 64 0 0.0 0.0 0.00 0.00 0.00 58 1012.8
20260504212615 64 0 0.0 0.0 0.00 0.00 0.00 56 1012.4
20260504211857 65 0 0.0 0.0 0.00 0.00 0.00 55 1012.3
20260504211140 65 0 0.0 0.0 0.00 0.00 0.00 55 1012.3
20260504210421 66 0 0.0 0.0 0.00 0.00 0.00 54 1012.5
20260504205703 66 0 0.0 0.0 0.00 0.00 0.00 54 1012.4
20260504204944 66 0 0.0 0.0 0.00 0.00 0.00 54 1012.6
20260504204224 66 0 0.0 0.0 0.00 0.00 0.00 54 1012.6
20260504203507 65 0 0.0 0.0 0.00 0.00 0.00 54 1012.5
20260504202749 65 0 0.0 0.0 0.00 0.00 0.00 54 1012.6
20260504201748 65 0 0.0 0.0 0.00 0.00 0.00 54 1012.6
20260504201030 65 0 0.0 0.0 0.00 0.00 0.00 54 1012.7
20260504200312 64 0 0.0 0.0 0.00 0.00 0.00 54 1012.6
20260504195552 64 0 0.0 0.0 0.00 0.00 0.00 52 1012.6
20260504194835 65 0 0.0 0.0 0.00 0.00 0.00 53 1012.6
20260504194116 65 0 0.0 0.0 0.00 0.00 0.00 53 1012.5
20260504193358 66 0 0.0 0.0 0.00 0.00 0.00 52 1012.6
20260504192641 66 0 0.0 0.0 0.00 0.00 0.00 52 1012.6
20260504191922 66 0 0.0 0.0 0.00 0.00 0.00 51 1012.4
20260504191203 66 0 0.0 0.0 0.00 0.00 0.00 52 1012.5
20260504190447 66 0 0.0 0.0 0.00 0.00 0.00 50 1012.5
20260504185726 67 0 0.0 0.0 0.00 0.00 0.00 50 1012.4
20260504185007 68 0 0.0 0.0 0.00 0.00 0.00 48 1012.2
20260504184250 68 0 0.0 0.0 0.00 0.00 0.00 48 1012.2
20260504183531 68 0 0.0 0.0 0.00 0.00 0.00 47 1012.2
20260504182528 69 0 0.0 0.0 0.00 0.00 0.00 46 1012.2
20260504181810 70 0 0.0 0.0 0.00 0.00 0.00 45 1012.2
20260504181052 70 0 0.0 0.0 0.00 0.00 0.00 44 1012.2
20260504180334 70 0 0.0 0.0 0.00 0.00 0.00 44 1012.2
20260504175614 70 0 0.0 0.0 0.00 0.00 0.00 42 1012.3
20260504174857 71 0 0.0 0.0 0.00 0.00 0.00 42 1012.4
20260504174139 71 0 0.0 0.0 0.00 0.00 0.00 42 1012.2
20260504173422 72 0 0.0 0.0 0.00 0.00 0.00 42 1012.1
20260504172705 72 0 0.0 0.0 0.00 0.00 0.00 42 1012.2
20260504171946 72 0 0.0 0.0 0.00 0.00 0.00 41 1012.2
20260504171228 73 0 0.0 0.0 0.00 0.00 0.00 40 1012.3
20260504170511 74 0 0.0 0.0 0.00 0.00 0.00 40 1012.2
20260504160402 76 0 0.0 0.0 0.00 0.00 0.00 38 1012.6
20260504141151 79 0 0.0 0.0 0.00 0.00 0.00 34 1013.3
20260504140429 78 0 0.0 0.0 0.00 0.00 0.00 34 1013.4
20260504110143 74 0 0.0 0.0 0.00 0.00 0.00 38 1014.8
20260504081502 67 0 0.0 0.0 0.00 0.00 0.00 44 1015.4
20260504080742 67 0 0.0 0.0 0.00 0.00 0.00 44 1015.4